contact:dominique.lefevre@mio.osupytheas.fr, maurice.libes@osupytheas.fr, didier.mallarino@osupytheas.fr
Project:EMSO http://www.emso-fr.org/EMSO-France
Depth: 2436.0 m
Title:EMSO Ligure Ouest : Data MII capteur MICROCAT
DateTime_Computer,Latitude,Longitude,Temperature,Conductivity,Pressure,DateTime_Instrument
DateTime_Computer,Latitude,Longitude,degC,S m-1,dbar,DateTime_Instrument
2023-04-24T00:02:16Z,42.805,6.029,13.3035,4.60097,2470.74,2023-4-24T02:05:18Z
2023-04-24T00:05:19Z,42.805,6.029,13.3030,4.60094,2470.777,2023-4-24T02:08:21Z
2023-04-24T00:08:22Z,42.805,6.029,13.3035,4.60098,2470.763,2023-4-24T02:11:24Z
2023-04-24T00:11:25Z,42.805,6.029,13.3031,4.60094,2470.763,2023-4-24T02:14:27Z
2023-04-24T00:14:28Z,42.805,6.029,13.3031,4.60093,2470.754,2023-4-24T02:17:30Z
2023-04-24T00:17:31Z,42.805,6.029,13.3029,4.60090,2470.763,2023-4-24T02:20:33Z
2023-04-24T00:20:34Z,42.805,6.029,13.3024,4.60089,2470.763,2023-4-24T02:23:36Z
2023-04-24T00:23:38Z,42.805,6.029,13.3029,4.60087,2470.74,2023-4-24T02:26:39Z
2023-04-24T00:26:41Z,42.805,6.029,13.3029,4.60087,2470.763,2023-4-24T02:29:42Z
2023-04-24T00:29:44Z,42.805,6.029,13.3024,4.60084,2470.777,2023-4-24T02:32:45Z
2023-04-24T00:32:47Z,42.805,6.029,13.3026,4.60087,2470.777,2023-4-24T02:35:48Z
2023-04-24T00:35:50Z,42.805,6.029,13.3027,4.60087,2470.777,2023-4-24T02:38:51Z
2023-04-24T00:38:53Z,42.805,6.029,13.3025,4.60088,2470.777,2023-4-24T02:41:55Z
2023-04-24T00:41:56Z,42.805,6.029,13.3024,4.60084,2470.74,2023-4-24T02:44:58Z
2023-04-24T00:44:59Z,42.805,6.029,13.3026,4.60087,2470.73,2023-4-24T02:48:01Z
2023-04-24T00:48:02Z,42.805,6.029,13.3025,4.60087,2470.74,2023-4-24T02:51:04Z
2023-04-24T00:51:05Z,42.805,6.029,13.3025,4.60094,2470.777,2023-4-24T02:54:07Z
2023-04-24T00:54:08Z,42.805,6.029,13.3027,4.60086,2470.717,2023-4-24T02:57:10Z
2023-04-24T00:57:11Z,42.805,6.029,13.3021,4.60097,2470.73,2023-4-24T03:00:13Z
2023-04-24T01:00:15Z,42.805,6.029,13.3026,4.60089,2470.763,2023-4-24T03:03:16Z
2023-04-24T01:03:18Z,42.805,6.029,13.3024,4.60096,2470.754,2023-4-24T03:06:19Z
2023-04-24T01:06:21Z,42.805,6.029,13.3026,4.60087,2470.717,2023-4-24T03:09:22Z
2023-04-24T01:09:24Z,42.805,6.029,13.3024,4.60087,2470.74,2023-4-24T03:12:25Z
2023-04-24T01:12:27Z,42.805,6.029,13.3028,4.60090,2470.74,2023-4-24T03:15:28Z
2023-04-24T01:15:30Z,42.805,6.029,13.3030,4.60089,2470.717,2023-4-24T03:18:32Z
2023-04-24T01:18:33Z,42.805,6.029,13.3028,4.60086,2470.754,2023-4-24T03:21:35Z
2023-04-24T01:21:36Z,42.805,6.029,13.3026,4.60084,2470.754,2023-4-24T03:24:38Z
2023-04-24T01:24:39Z,42.805,6.029,13.3026,4.60084,2470.73,2023-4-24T03:27:41Z
2023-04-24T01:27:42Z,42.805,6.029,13.3033,4.60097,2470.74,2023-4-24T03:30:44Z
2023-04-24T01:30:45Z,42.805,6.029,13.3026,4.60085,2470.73,2023-4-24T03:33:47Z
2023-04-24T01:33:48Z,42.805,6.029,13.3027,4.60091,2470.693,2023-4-24T03:36:50Z
2023-04-24T01:36:52Z,42.805,6.029,13.3026,4.60086,2470.74,2023-4-24T03:39:53Z
2023-04-24T01:39:55Z,42.805,6.029,13.3031,4.60102,2470.754,2023-4-24T03:42:56Z
2023-04-24T01:42:58Z,42.805,6.029,13.3029,4.60087,2470.73,2023-4-24T03:45:59Z
2023-04-24T01:46:01Z,42.805,6.029,13.3026,4.60090,2470.73,2023-4-24T03:49:02Z
2023-04-24T01:49:04Z,42.805,6.029,13.3024,4.60089,2470.707,2023-4-24T03:52:05Z
2023-04-24T01:52:07Z,42.805,6.029,13.3026,4.60087,2470.763,2023-4-24T03:55:08Z
2023-04-24T01:55:10Z,42.805,6.029,13.3026,4.60090,2470.707,2023-4-24T03:58:12Z
2023-04-24T01:58:13Z,42.805,6.029,13.3027,4.60094,2470.717,2023-4-24T04:01:15Z
2023-04-24T02:01:16Z,42.805,6.029,13.3027,4.60084,2470.73,2023-4-24T04:04:18Z
2023-04-24T02:04:19Z,42.805,6.029,13.3031,4.60089,2470.73,2023-4-24T04:07:21Z
2023-04-24T02:07:22Z,42.805,6.029,13.3025,4.60087,2470.74,2023-4-24T04:10:24Z
2023-04-24T02:10:25Z,42.805,6.029,13.3029,4.60087,2470.717,2023-4-24T04:13:27Z
2023-04-24T02:13:29Z,42.805,6.029,13.3025,4.60086,2470.717,2023-4-24T04:16:30Z
2023-04-24T02:16:32Z,42.805,6.029,13.3029,4.60084,2470.693,2023-4-24T04:19:33Z
2023-04-24T02:19:35Z,42.805,6.029,13.3028,4.60087,2470.717,2023-4-24T04:22:36Z
2023-04-24T02:22:38Z,42.805,6.029,13.3033,4.60089,2470.73,2023-4-24T04:25:39Z
2023-04-24T02:25:41Z,42.805,6.029,13.3031,4.60091,2470.693,2023-4-24T04:28:42Z
2023-04-24T02:28:44Z,42.805,6.029,13.3029,4.60089,2470.693,2023-4-24T04:31:46Z
2023-04-24T02:31:47Z,42.805,6.029,13.3031,4.60107,2470.67,2023-4-24T04:34:49Z
2023-04-24T02:34:50Z,42.805,6.029,13.3036,4.60101,2470.73,2023-4-24T04:37:52Z
2023-04-24T02:37:53Z,42.805,6.029,13.3029,4.60094,2470.693,2023-4-24T04:40:55Z
2023-04-24T02:40:56Z,42.805,6.029,13.3035,4.60092,2470.74,2023-4-24T04:43:58Z
2023-04-24T02:43:59Z,42.805,6.029,13.3031,4.60094,2470.707,2023-4-24T04:47:01Z
2023-04-24T02:47:02Z,42.805,6.029,13.3034,4.60101,2470.684,2023-4-24T04:50:04Z
2023-04-24T02:50:06Z,42.805,6.029,13.3031,4.60103,2470.67,2023-4-24T04:53:07Z
2023-04-24T02:53:09Z,42.805,6.029,13.3031,4.60094,2470.67,2023-4-24T04:56:10Z
2023-04-24T02:56:12Z,42.805,6.029,13.3031,4.60099,2470.707,2023-4-24T04:59:13Z
2023-04-24T02:59:15Z,42.805,6.029,13.3035,4.60092,2470.73,2023-4-24T05:02:16Z
2023-04-24T03:02:18Z,42.805,6.029,13.3032,4.60097,2470.707,2023-4-24T05:05:19Z
2023-04-24T03:05:21Z,42.805,6.029,13.3036,4.60094,2470.67,2023-4-24T05:08:23Z
2023-04-24T03:08:24Z,42.805,6.029,13.3031,4.60097,2470.67,2023-4-24T05:11:26Z
2023-04-24T03:11:27Z,42.805,6.029,13.3034,4.60101,2470.684,2023-4-24T05:14:29Z
2023-04-24T03:14:30Z,42.805,6.029,13.3029,4.60088,2470.693,2023-4-24T05:17:32Z
2023-04-24T03:17:33Z,42.805,6.029,13.3030,4.60096,2470.693,2023-4-24T05:20:35Z
2023-04-24T03:20:36Z,42.805,6.029,13.3031,4.60097,2470.684,2023-4-24T05:23:38Z
2023-04-24T03:23:39Z,42.805,6.029,13.3035,4.60095,2470.693,2023-4-24T05:26:41Z
2023-04-24T03:26:42Z,42.805,6.029,13.3029,4.60091,2470.707,2023-4-24T05:29:44Z
2023-04-24T03:29:46Z,42.805,6.029,13.3029,4.60089,2470.67,2023-4-24T05:32:47Z
2023-04-24T03:32:49Z,42.805,6.029,13.3027,4.60097,2470.67,2023-4-24T05:35:50Z
2023-04-24T03:35:52Z,42.805,6.029,13.3026,4.60088,2470.684,2023-4-24T05:38:53Z
2023-04-24T03:38:55Z,42.805,6.029,13.3027,4.60098,2470.67,2023-4-24T05:41:56Z
2023-04-24T03:41:58Z,42.805,6.029,13.3030,4.60093,2470.67,2023-4-24T05:45:00Z
2023-04-24T03:45:01Z,42.805,6.029,13.3034,4.60090,2470.661,2023-4-24T05:48:03Z
2023-04-24T03:48:04Z,42.805,6.029,13.3029,4.60090,2470.693,2023-4-24T05:51:06Z
2023-04-24T03:51:07Z,42.805,6.029,13.3031,4.60095,2470.646,2023-4-24T05:54:09Z
2023-04-24T03:54:10Z,42.805,6.029,13.3031,4.60089,2470.67,2023-4-24T05:57:12Z
2023-04-24T03:57:13Z,42.805,6.029,13.3031,4.60104,2470.646,2023-4-24T06:00:15Z
2023-04-24T04:00:16Z,42.805,6.029,13.3031,4.60097,2470.684,2023-4-24T06:03:18Z
2023-04-24T04:03:19Z,42.805,6.029,13.3033,4.60093,2470.646,2023-4-24T06:06:21Z
2023-04-24T04:06:23Z,42.805,6.029,13.3034,4.60098,2470.67,2023-4-24T06:09:24Z
2023-04-24T04:09:26Z,42.805,6.029,13.3029,4.60095,2470.646,2023-4-24T06:12:27Z
2023-04-24T04:12:29Z,42.805,6.029,13.3031,4.60094,2470.684,2023-4-24T06:15:30Z
2023-04-24T04:15:32Z,42.805,6.029,13.3032,4.60093,2470.624,2023-4-24T06:18:33Z
2023-04-24T04:18:35Z,42.805,6.029,13.3029,4.60097,2470.661,2023-4-24T06:21:37Z
2023-04-24T04:21:38Z,42.805,6.029,13.3029,4.60094,2470.637,2023-4-24T06:24:40Z
2023-04-24T04:24:41Z,42.805,6.029,13.3029,4.60087,2470.646,2023-4-24T06:27:43Z
2023-04-24T04:27:44Z,42.805,6.029,13.3031,4.60093,2470.684,2023-4-24T06:30:46Z
2023-04-24T04:30:47Z,42.805,6.029,13.3034,4.60092,2470.661,2023-4-24T06:33:49Z
2023-04-24T04:33:50Z,42.805,6.029,13.3034,4.60099,2470.646,2023-4-24T06:36:52Z
2023-04-24T04:36:53Z,42.805,6.029,13.3034,4.60101,2470.661,2023-4-24T06:39:55Z
2023-04-24T04:39:56Z,42.805,6.029,13.3032,4.60097,2470.67,2023-4-24T06:42:58Z
2023-04-24T04:43:00Z,42.805,6.029,13.3029,4.60093,2470.646,2023-4-24T06:46:01Z
2023-04-24T04:46:03Z,42.805,6.029,13.3026,4.60087,2470.624,2023-4-24T06:49:04Z
2023-04-24T04:49:06Z,42.805,6.029,13.3030,4.60095,2470.684,2023-4-24T06:52:07Z
2023-04-24T04:52:09Z,42.805,6.029,13.3032,4.60096,2470.624,2023-4-24T06:55:10Z
2023-04-24T04:55:12Z,42.805,6.029,13.3032,4.60094,2470.646,2023-4-24T06:58:14Z
2023-04-24T04:58:15Z,42.805,6.029,13.3029,4.60097,2470.67,2023-4-24T07:01:17Z
2023-04-24T05:01:18Z,42.805,6.029,13.3029,4.60097,2470.646,2023-4-24T07:04:20Z
2023-04-24T05:04:21Z,42.805,6.029,13.3032,4.60091,2470.684,2023-4-24T07:07:23Z
2023-04-24T05:07:24Z,42.805,6.029,13.3029,4.60089,2470.656,2023-4-24T07:10:26Z
2023-04-24T05:10:27Z,42.805,6.029,13.3029,4.60094,2470.637,2023-4-24T07:13:29Z
2023-04-24T05:13:30Z,42.805,6.029,13.3029,4.60091,2470.646,2023-4-24T07:16:32Z
2023-04-24T05:16:33Z,42.805,6.029,13.3031,4.60096,2470.646,2023-4-24T07:19:35Z
2023-04-24T05:19:37Z,42.805,6.029,13.3031,4.60091,2470.646,2023-4-24T07:22:38Z
2023-04-24T05:22:40Z,42.805,6.029,13.3030,4.60097,2470.661,2023-4-24T07:25:41Z
2023-04-24T05:25:43Z,42.805,6.029,13.3032,4.60097,2470.624,2023-4-24T07:28:44Z
2023-04-24T05:28:46Z,42.805,6.029,13.3036,4.60099,2470.646,2023-4-24T07:31:47Z
2023-04-24T05:31:49Z,42.805,6.029,13.3029,4.60094,2470.67,2023-4-24T07:34:51Z
2023-04-24T05:34:52Z,42.805,6.029,13.3031,4.60093,2470.624,2023-4-24T07:37:54Z
2023-04-24T05:37:55Z,42.805,6.029,13.3032,4.60096,2470.684,2023-4-24T07:40:57Z
2023-04-24T05:40:58Z,42.805,6.029,13.3038,4.60098,2470.646,2023-4-24T07:44:00Z
2023-04-24T05:44:01Z,42.805,6.029,13.3034,4.60098,2470.646,2023-4-24T07:47:03Z
2023-04-24T05:47:04Z,42.805,6.029,13.3036,4.60103,2470.67,2023-4-24T07:50:06Z
2023-04-24T05:50:07Z,42.805,6.029,13.3033,4.60101,2470.67,2023-4-24T07:53:09Z
2023-04-24T05:53:10Z,42.805,6.029,13.3033,4.60093,2470.707,2023-4-24T07:56:12Z
2023-04-24T05:56:14Z,42.805,6.029,13.3032,4.60089,2470.646,2023-4-24T07:59:15Z
2023-04-24T05:59:17Z,42.805,6.029,13.3034,4.60099,2470.646,2023-4-24T08:02:18Z
2023-04-24T06:02:20Z,42.805,6.029,13.3032,4.60104,2470.661,2023-4-24T08:05:21Z
2023-04-24T06:05:23Z,42.805,6.029,13.3034,4.60099,2470.67,2023-4-24T08:08:24Z
2023-04-24T06:08:26Z,42.805,6.029,13.3043,4.60106,2470.707,2023-4-24T08:11:27Z
2023-04-24T06:11:29Z,42.805,6.029,13.3039,4.60102,2470.707,2023-4-24T08:14:31Z
2023-04-24T06:14:32Z,42.805,6.029,13.3033,4.60099,2470.637,2023-4-24T08:17:34Z
2023-04-24T06:17:35Z,42.805,6.029,13.3032,4.60099,2470.67,2023-4-24T08:20:37Z
2023-04-24T06:20:38Z,42.805,6.029,13.3031,4.60095,2470.67,2023-4-24T08:23:40Z
2023-04-24T06:23:41Z,42.805,6.029,13.3030,4.60093,2470.693,2023-4-24T08:26:43Z
2023-04-24T06:26:44Z,42.805,6.029,13.3031,4.60097,2470.67,2023-4-24T08:29:46Z
2023-04-24T06:29:47Z,42.805,6.029,13.3032,4.60098,2470.67,2023-4-24T08:32:49Z
2023-04-24T06:32:50Z,42.805,6.029,13.3030,4.60099,2470.646,2023-4-24T08:35:52Z
2023-04-24T06:35:53Z,42.805,6.029,13.3033,4.60119,2470.684,2023-4-24T08:38:55Z
2023-04-24T06:38:56Z,42.805,6.029,13.3031,4.60102,2470.684,2023-4-24T08:41:58Z
2023-04-24T06:41:59Z,42.805,6.029,13.3038,4.60104,2470.693,2023-4-24T08:45:01Z
2023-04-24T06:45:02Z,42.805,6.029,13.3039,4.60114,2470.693,2023-4-24T08:48:04Z
2023-04-24T06:48:06Z,42.805,6.029,13.3038,4.60104,2470.67,2023-4-24T08:51:07Z
2023-04-24T06:51:09Z,42.805,6.029,13.3035,4.60119,2470.67,2023-4-24T08:54:10Z
2023-04-24T06:54:12Z,42.805,6.029,13.3032,4.60100,2470.693,2023-4-24T08:57:13Z
2023-04-24T06:57:15Z,42.805,6.029,13.3036,4.60097,2470.693,2023-4-24T09:00:16Z
2023-04-24T07:00:18Z,42.805,6.029,13.3039,4.60104,2470.707,2023-4-24T09:03:19Z
2023-04-24T07:03:21Z,42.805,6.029,13.3034,4.60099,2470.717,2023-4-24T09:06:23Z
2023-04-24T07:06:24Z,42.805,6.029,13.3034,4.60099,2470.73,2023-4-24T09:09:26Z
2023-04-24T07:09:27Z,42.805,6.029,13.3037,4.60109,2470.67,2023-4-24T09:12:29Z
2023-04-24T07:12:30Z,42.805,6.029,13.3037,4.60104,2470.693,2023-4-24T09:15:32Z
2023-04-24T07:15:33Z,42.805,6.029,13.3037,4.60099,2470.73,2023-4-24T09:18:35Z
2023-04-24T07:18:36Z,42.805,6.029,13.3034,4.60097,2470.73,2023-4-24T09:21:38Z
2023-04-24T07:21:39Z,42.805,6.029,13.3036,4.60101,2470.717,2023-4-24T09:24:41Z
2023-04-24T07:24:42Z,42.805,6.029,13.3033,4.60103,2470.74,2023-4-24T09:27:44Z
2023-04-24T07:27:46Z,42.805,6.029,13.3033,4.60100,2470.717,2023-4-24T09:30:47Z
2023-04-24T07:30:49Z,42.805,6.029,13.3040,4.60108,2470.717,2023-4-24T09:33:50Z
2023-04-24T07:33:52Z,42.805,6.029,13.3038,4.60114,2470.73,2023-4-24T09:36:53Z
2023-04-24T07:36:55Z,42.805,6.029,13.3034,4.60109,2470.74,2023-4-24T09:39:57Z
2023-04-24T07:39:58Z,42.805,6.029,13.3034,4.60110,2470.717,2023-4-24T09:43:00Z
2023-04-24T07:43:01Z,42.805,6.029,13.3034,4.60103,2470.73,2023-4-24T09:46:03Z
2023-04-24T07:46:04Z,42.805,6.029,13.3033,4.60110,2470.717,2023-4-24T09:49:06Z
2023-04-24T07:49:07Z,42.805,6.029,13.3036,4.60101,2470.717,2023-4-24T09:52:09Z
2023-04-24T07:52:10Z,42.805,6.029,13.3036,4.60100,2470.717,2023-4-24T09:55:12Z
2023-04-24T07:55:13Z,42.805,6.029,13.3031,4.60105,2470.73,2023-4-24T09:58:15Z
2023-04-24T07:58:16Z,42.805,6.029,13.3036,4.60104,2470.726,2023-4-24T10:01:18Z
2023-04-24T08:01:20Z,42.805,6.029,13.3037,4.60098,2470.717,2023-4-24T10:04:21Z
2023-04-24T08:04:23Z,42.805,6.029,13.3032,4.60104,2470.74,2023-4-24T10:07:24Z
2023-04-24T08:07:26Z,42.805,6.029,13.3031,4.60097,2470.717,2023-4-24T10:10:27Z
2023-04-24T08:10:29Z,42.805,6.029,13.3031,4.60109,2470.74,2023-4-24T10:13:30Z
2023-04-24T08:13:32Z,42.805,6.029,13.3035,4.60096,2470.754,2023-4-24T10:16:34Z
2023-04-24T08:16:35Z,42.805,6.029,13.3032,4.60099,2470.717,2023-4-24T10:19:37Z
2023-04-24T08:19:38Z,42.805,6.029,13.3041,4.60097,2470.754,2023-4-24T10:22:40Z
2023-04-24T08:22:41Z,42.805,6.029,13.3031,4.60097,2470.73,2023-4-24T10:25:43Z
2023-04-24T08:25:44Z,42.805,6.029,13.3034,4.60099,2470.74,2023-4-24T10:28:46Z
2023-04-24T08:28:47Z,42.805,6.029,13.3033,4.60108,2470.717,2023-4-24T10:31:49Z
2023-04-24T08:31:50Z,42.805,6.029,13.3042,4.60105,2470.777,2023-4-24T10:34:52Z
2023-04-24T08:34:53Z,42.805,6.029,13.3034,4.60093,2470.74,2023-4-24T10:37:55Z
2023-04-24T08:37:57Z,42.805,6.029,13.3036,4.60100,2470.74,2023-4-24T10:40:58Z
2023-04-24T08:41:00Z,42.805,6.029,13.3031,4.60096,2470.763,2023-4-24T10:44:01Z
2023-04-24T08:44:03Z,42.805,6.029,13.3031,4.60098,2470.763,2023-4-24T10:47:04Z
2023-04-24T08:47:06Z,42.805,6.029,13.3034,4.60098,2470.74,2023-4-24T10:50:08Z
2023-04-24T08:50:09Z,42.805,6.029,13.3036,4.60102,2470.763,2023-4-24T10:53:11Z
2023-04-24T08:53:12Z,42.805,6.029,13.3034,4.60103,2470.777,2023-4-24T10:56:14Z
2023-04-24T08:56:15Z,42.805,6.029,13.3035,4.60104,2470.74,2023-4-24T10:59:17Z
2023-04-24T08:59:18Z,42.805,6.029,13.3036,4.60092,2470.754,2023-4-24T11:02:20Z
2023-04-24T09:02:21Z,42.805,6.029,13.3032,4.60099,2470.74,2023-4-24T11:05:23Z
2023-04-24T09:05:24Z,42.805,6.029,13.3036,4.60096,2470.763,2023-4-24T11:08:26Z
2023-04-24T09:08:27Z,42.805,6.029,13.3033,4.60099,2470.777,2023-4-24T11:11:29Z
2023-04-24T09:11:30Z,42.805,6.029,13.3033,4.60098,2470.763,2023-4-24T11:14:32Z
2023-04-24T09:14:34Z,42.805,6.029,13.3031,4.60101,2470.74,2023-4-24T11:17:35Z
2023-04-24T09:17:37Z,42.805,6.029,13.3038,4.60096,2470.74,2023-4-24T11:20:38Z
2023-04-24T09:20:40Z,42.805,6.029,13.3036,4.60104,2470.754,2023-4-24T11:23:41Z
2023-04-24T09:23:43Z,42.805,6.029,13.3037,4.60111,2470.763,2023-4-24T11:26:45Z
2023-04-24T09:26:46Z,42.805,6.029,13.3041,4.60111,2470.777,2023-4-24T11:29:48Z
2023-04-24T09:29:49Z,42.805,6.029,13.3039,4.60096,2470.763,2023-4-24T11:32:51Z
2023-04-24T09:32:52Z,42.805,6.029,13.3037,4.60095,2470.763,2023-4-24T11:35:54Z
2023-04-24T09:35:55Z,42.805,6.029,13.3036,4.60109,2470.74,2023-4-24T11:38:57Z
2023-04-24T09:38:58Z,42.805,6.029,13.3039,4.60115,2470.754,2023-4-24T11:42:00Z
2023-04-24T09:42:01Z,42.805,6.029,13.3035,4.60101,2470.74,2023-4-24T11:45:03Z
2023-04-24T09:45:04Z,42.805,6.029,13.3034,4.60101,2470.74,2023-4-24T11:48:06Z
2023-04-24T09:48:08Z,42.805,6.029,13.3036,4.60098,2470.74,2023-4-24T11:51:09Z
2023-04-24T09:51:11Z,42.805,6.029,13.3034,4.60098,2470.787,2023-4-24T11:54:12Z
2023-04-24T09:54:14Z,42.805,6.029,13.3031,4.60099,2470.74,2023-4-24T11:57:15Z
2023-04-24T09:57:17Z,42.805,6.029,13.3034,4.60093,2470.74,2023-4-24T12:00:19Z
2023-04-24T10:00:20Z,42.805,6.029,13.3032,4.60105,2470.754,2023-4-24T12:03:22Z
2023-04-24T10:03:23Z,42.805,6.029,13.3039,4.60110,2470.763,2023-4-24T12:06:25Z
2023-04-24T10:06:26Z,42.805,6.029,13.3034,4.60097,2470.74,2023-4-24T12:09:28Z
2023-04-24T10:09:29Z,42.805,6.029,13.3039,4.60092,2470.754,2023-4-24T12:12:31Z
2023-04-24T10:12:32Z,42.805,6.029,13.3036,4.60100,2470.777,2023-4-24T12:15:34Z
2023-04-24T10:15:35Z,42.805,6.029,13.3038,4.60093,2470.73,2023-4-24T12:18:37Z
2023-04-24T10:18:38Z,42.805,6.029,13.3036,4.60096,2470.717,2023-4-24T12:21:40Z
2023-04-24T10:21:41Z,42.805,6.029,13.3032,4.60087,2470.73,2023-4-24T12:24:43Z
2023-04-24T10:24:45Z,42.805,6.029,13.3036,4.60095,2470.74,2023-4-24T12:27:46Z
2023-04-24T10:27:48Z,42.805,6.029,13.3039,4.60101,2470.763,2023-4-24T12:30:49Z
2023-04-24T10:30:51Z,42.805,6.029,13.3032,4.60087,2470.73,2023-4-24T12:33:53Z
2023-04-24T10:33:54Z,42.805,6.029,13.3041,4.60095,2470.717,2023-4-24T12:36:56Z
2023-04-24T10:36:58Z,42.805,6.029,13.3035,4.60103,2470.693,2023-4-24T12:39:59Z
2023-04-24T10:40:01Z,42.805,6.029,13.3036,4.60103,2470.73,2023-4-24T12:43:02Z
2023-04-24T10:43:04Z,42.805,6.029,13.3032,4.60102,2470.693,2023-4-24T12:46:05Z
2023-04-24T10:46:07Z,42.805,6.029,13.3045,4.60108,2470.74,2023-4-24T12:49:09Z
2023-04-24T10:49:10Z,42.805,6.029,13.3038,4.60104,2470.73,2023-4-24T12:52:12Z
2023-04-24T10:52:13Z,42.805,6.029,13.3042,4.60104,2470.717,2023-4-24T12:55:15Z
2023-04-24T10:55:16Z,42.805,6.029,13.3039,4.60105,2470.693,2023-4-24T12:58:18Z
2023-04-24T10:58:19Z,42.805,6.029,13.3041,4.60098,2470.693,2023-4-24T13:01:21Z
2023-04-24T11:01:22Z,42.805,6.029,13.3039,4.60106,2470.73,2023-4-24T13:04:24Z
2023-04-24T11:04:25Z,42.805,6.029,13.3039,4.60101,2470.717,2023-4-24T13:07:27Z
2023-04-24T11:07:28Z,42.805,6.029,13.3041,4.60112,2470.73,2023-4-24T13:10:30Z
2023-04-24T11:10:31Z,42.805,6.029,13.3036,4.60104,2470.693,2023-4-24T13:13:33Z
2023-04-24T11:13:35Z,42.805,6.029,13.3036,4.60097,2470.707,2023-4-24T13:16:36Z
2023-04-24T11:16:38Z,42.805,6.029,13.3035,4.60110,2470.717,2023-4-24T13:19:39Z
2023-04-24T11:19:41Z,42.805,6.029,13.3031,4.60087,2470.693,2023-4-24T13:22:43Z
2023-04-24T11:22:44Z,42.805,6.029,13.3034,4.60097,2470.67,2023-4-24T13:25:46Z
2023-04-24T11:25:47Z,42.805,6.029,13.3037,4.60111,2470.707,2023-4-24T13:28:49Z
2023-04-24T11:28:50Z,42.805,6.029,13.3034,4.60099,2470.646,2023-4-24T13:31:52Z
2023-04-24T11:31:53Z,42.805,6.029,13.3036,4.60107,2470.707,2023-4-24T13:34:55Z
2023-04-24T11:34:56Z,42.805,6.029,13.3042,4.60095,2470.646,2023-4-24T13:37:58Z
2023-04-24T11:37:59Z,42.805,6.029,13.3034,4.60097,2470.693,2023-4-24T13:41:01Z
2023-04-24T11:41:02Z,42.805,6.029,13.3034,4.60096,2470.693,2023-4-24T13:44:04Z
2023-04-24T11:44:05Z,42.805,6.029,13.3038,4.60094,2470.661,2023-4-24T13:47:07Z
2023-04-24T11:47:09Z,42.805,6.029,13.3038,4.60102,2470.67,2023-4-24T13:50:10Z
2023-04-24T11:50:12Z,42.805,6.029,13.3041,4.60097,2470.693,2023-4-24T13:53:13Z
2023-04-24T11:53:15Z,42.805,6.029,13.3034,4.60092,2470.693,2023-4-24T13:56:16Z
2023-04-24T11:56:18Z,42.805,6.029,13.3039,4.60102,2470.684,2023-4-24T13:59:20Z
2023-04-24T11:59:21Z,42.805,6.029,13.3043,4.60089,2470.646,2023-4-24T14:02:23Z
2023-04-24T12:02:24Z,42.805,6.029,13.3039,4.60092,2470.693,2023-4-24T14:05:26Z
2023-04-24T12:05:27Z,42.805,6.029,13.3041,4.60104,2470.67,2023-4-24T14:08:29Z
2023-04-24T12:08:30Z,42.805,6.029,13.3041,4.60110,2470.67,2023-4-24T14:11:32Z
2023-04-24T12:11:33Z,42.805,6.029,13.3035,4.60102,2470.707,2023-4-24T14:14:35Z
2023-04-24T12:14:36Z,42.805,6.029,13.3043,4.60104,2470.684,2023-4-24T14:17:38Z
2023-04-24T12:17:39Z,42.805,6.029,13.3036,4.60094,2470.646,2023-4-24T14:20:41Z
2023-04-24T12:20:43Z,42.805,6.029,13.3031,4.60087,2470.661,2023-4-24T14:23:44Z
2023-04-24T12:23:46Z,42.805,6.029,13.3025,4.60085,2470.684,2023-4-24T14:26:47Z
2023-04-24T12:26:49Z,42.805,6.029,13.3030,4.60084,2470.684,2023-4-24T14:29:51Z
2023-04-24T12:29:52Z,42.805,6.029,13.3031,4.60092,2470.646,2023-4-24T14:32:54Z
2023-04-24T12:32:55Z,42.805,6.029,13.3029,4.60084,2470.67,2023-4-24T14:35:57Z
2023-04-24T12:35:58Z,42.805,6.029,13.3038,4.60092,2470.646,2023-4-24T14:39:00Z
2023-04-24T12:39:02Z,42.805,6.029,13.3025,4.60081,2470.67,2023-4-24T14:42:03Z
2023-04-24T12:42:05Z,42.805,6.029,13.3029,4.60086,2470.646,2023-4-24T14:45:06Z
2023-04-24T12:45:08Z,42.805,6.029,13.3027,4.60081,2470.661,2023-4-24T14:48:10Z
2023-04-24T12:48:11Z,42.805,6.029,13.3032,4.60092,2470.67,2023-4-24T14:51:13Z
2023-04-24T12:51:14Z,42.805,6.029,13.3031,4.60080,2470.67,2023-4-24T14:54:16Z
2023-04-24T12:54:17Z,42.805,6.029,13.3029,4.60085,2470.646,2023-4-24T14:57:19Z
2023-04-24T12:57:20Z,42.805,6.029,13.3033,4.60094,2470.646,2023-4-24T15:00:22Z
2023-04-24T13:00:23Z,42.805,6.029,13.3028,4.60079,2470.646,2023-4-24T15:03:25Z
2023-04-24T13:03:26Z,42.805,6.029,13.3027,4.60085,2470.661,2023-4-24T15:06:28Z
2023-04-24T13:06:29Z,42.805,6.029,13.3026,4.60080,2470.661,2023-4-24T15:09:31Z
2023-04-24T13:09:32Z,42.805,6.029,13.3029,4.60084,2470.646,2023-4-24T15:12:34Z
2023-04-24T13:12:36Z,42.805,6.029,13.3033,4.60085,2470.646,2023-4-24T15:15:37Z
2023-04-24T13:15:39Z,42.805,6.029,13.3024,4.60079,2470.67,2023-4-24T15:18:40Z
2023-04-24T13:18:42Z,42.805,6.029,13.3030,4.60087,2470.661,2023-4-24T15:21:44Z
2023-04-24T13:21:45Z,42.805,6.029,13.3032,4.60087,2470.577,2023-4-24T15:24:47Z
2023-04-24T13:24:48Z,42.805,6.029,13.3028,4.60092,2470.637,2023-4-24T15:27:50Z
2023-04-24T13:27:51Z,42.805,6.029,13.3033,4.60090,2470.646,2023-4-24T15:30:53Z
2023-04-24T13:30:54Z,42.805,6.029,13.3022,4.60077,2470.646,2023-4-24T15:33:56Z
2023-04-24T13:33:57Z,42.805,6.029,13.3032,4.60081,2470.646,2023-4-24T15:36:59Z
2023-04-24T13:37:00Z,42.805,6.029,13.3027,4.60078,2470.624,2023-4-24T15:40:02Z
2023-04-24T13:40:03Z,42.805,6.029,13.3033,4.60091,2470.661,2023-4-24T15:43:05Z
2023-04-24T13:43:06Z,42.805,6.029,13.3029,4.60087,2470.661,2023-4-24T15:46:08Z
2023-04-24T13:46:09Z,42.805,6.029,13.3024,4.60083,2470.646,2023-4-24T15:49:11Z
2023-04-24T13:49:13Z,42.805,6.029,13.3027,4.60079,2470.646,2023-4-24T15:52:14Z
2023-04-24T13:52:16Z,42.805,6.029,13.3031,4.60088,2470.661,2023-4-24T15:55:17Z
2023-04-24T13:55:19Z,42.805,6.029,13.3027,4.60082,2470.6,2023-4-24T15:58:21Z
2023-04-24T13:58:22Z,42.805,6.029,13.3024,4.60082,2470.614,2023-4-24T16:01:24Z
2023-04-24T14:01:25Z,42.805,6.029,13.3032,4.60086,2470.624,2023-4-24T16:04:27Z
2023-04-24T14:04:28Z,42.805,6.029,13.3031,4.60084,2470.614,2023-4-24T16:07:30Z
2023-04-24T14:07:31Z,42.805,6.029,13.3018,4.60077,2470.637,2023-4-24T16:10:33Z
2023-04-24T14:10:34Z,42.805,6.029,13.3024,4.60077,2470.624,2023-4-24T16:13:36Z
2023-04-24T14:13:37Z,42.805,6.029,13.3034,4.60079,2470.614,2023-4-24T16:16:39Z
2023-04-24T14:16:40Z,42.805,6.029,13.3029,4.60091,2470.624,2023-4-24T16:19:42Z
2023-04-24T14:19:43Z,42.805,6.029,13.3028,4.60091,2470.646,2023-4-24T16:22:45Z
2023-04-24T14:22:46Z,42.805,6.029,13.3035,4.60085,2470.646,2023-4-24T16:25:48Z
2023-04-24T14:25:50Z,42.805,6.029,13.3031,4.60087,2470.614,2023-4-24T16:28:51Z
2023-04-24T14:28:53Z,42.805,6.029,13.3031,4.60087,2470.624,2023-4-24T16:31:55Z
2023-04-24T14:31:56Z,42.805,6.029,13.3019,4.60076,2470.614,2023-4-24T16:34:58Z
2023-04-24T14:34:59Z,42.805,6.029,13.3031,4.60078,2470.614,2023-4-24T16:38:01Z
2023-04-24T14:38:02Z,42.805,6.029,13.3026,4.60079,2470.637,2023-4-24T16:41:04Z
2023-04-24T14:41:05Z,42.805,6.029,13.3030,4.60092,2470.6,2023-4-24T16:44:07Z
2023-04-24T14:44:08Z,42.805,6.029,13.3026,4.60081,2470.614,2023-4-24T16:47:10Z
2023-04-24T14:47:11Z,42.805,6.029,13.3028,4.60081,2470.614,2023-4-24T16:50:13Z
2023-04-24T14:50:14Z,42.805,6.029,13.3027,4.60088,2470.614,2023-4-24T16:53:16Z
2023-04-24T14:53:17Z,42.805,6.029,13.3025,4.60077,2470.624,2023-4-24T16:56:19Z
2023-04-24T14:56:20Z,42.805,6.029,13.3022,4.60081,2470.6,2023-4-24T16:59:22Z
2023-04-24T14:59:24Z,42.805,6.029,13.3020,4.60075,2470.614,2023-4-24T17:02:25Z
2023-04-24T15:02:27Z,42.805,6.029,13.3029,4.60094,2470.6,2023-4-24T17:05:28Z
2023-04-24T15:05:30Z,42.805,6.029,13.3026,4.60081,2470.6,2023-4-24T17:08:32Z
2023-04-24T15:08:33Z,42.805,6.029,13.3019,4.60091,2470.614,2023-4-24T17:11:35Z
2023-04-24T15:11:36Z,42.805,6.029,13.3021,4.60073,2470.624,2023-4-24T17:14:38Z
2023-04-24T15:14:39Z,42.805,6.029,13.3021,4.60072,2470.614,2023-4-24T17:17:41Z